Weather History for Medford, OR

Change the Weather History Date:

Monday, July 23, 2012

  Actual Average Record
Temperature  
Mean Temperature 69 °F 75 °F  
Max Temperature 86 °F 93 °F 107 °F (2006)
Min Temperature 51 °F 58 °F 44 °F (1922)
Degree Days  
Heating Degree Days 0 0  
Month to date heating degree days 0 1  
Since 1 June heating degree days 94 55  
Since 1 July heating degree days 0 1  
Cooling Degree Days 4 11  
Month to date cooling degree days 200 200  
Year to date cooling degree days 324 346  
Since 1 June cooling degree days 272 308  
Growing Degree Days 19 (Base 50)    
Moisture  
Dew Point 48 °F    
Average Humidity 57    
Maximum Humidity 83    
Minimum Humidity 30    
Precipitation  
Precipitation 0.00 in 0.01 in 0.90 in (1913)
Month to date precipitation 0.07 0.22  
Year to date precipitation 14.12 9.68  
Snow  
Snow 0.00 in 0.00 in - ()
Month to date snowfall 0.0 0.0  
Since 1 July snowfall 0.0 0.0  
Snow Depth 0.00 in    
Sea Level Pressure  
Sea Level Pressure 30.04 in    
Wind  
Wind Speed 5 mph (NNW)    
Max Wind Speed 14 mph    
Max Gust Speed 20 mph    
Visibility 10 miles    
Events      
T = Trace of Precipitation, MM = Missing Value Source: NWS Daily Summary

Daily Weather History Graph

Daily Weather History Graph

Search for Another Location

Airport:

Trip Planner

Search our weather history database for the weather conditions in past years. The results will help you decide how hot, cold, wet, or windy it might be!

Date:

Astronomy

Jul. 23, 2012 Rise Set
Actual Time 5:55 AM PDT 8:39 PM PDT
Civil Twilight 5:22 AM PDT 9:12 PM PDT
Nautical Twilight 4:41 AM PDT 9:53 PM PDT
Astronomical Twilight 3:54 AM PDT 10:40 PM PDT
Moon 11:00 AM PDT (7/23) 10:49 PM PDT (7/23)
Length of Visible Light 15h 49m
Length of Day
14h 44m
Waxing Crescent, 23% of the Moon is Illuminated
Jul 23
Waxing Crescent
Jul 26
First Quarter
Aug 1
Full
Aug 9
Last Quarter
Aug 17
New

Hourly Weather History & Observations

Time (PDT) Temp. Dew Point Humidity Pressure Visibility Wind Dir Wind Speed Gust Speed Precip Events Conditions
12:53 AM 60.1 °F 48.0 °F 64% 30.10 in 10.0 mi NNW 4.6 mph - N/A   Clear
1:53 AM 59.0 °F 48.0 °F 67% 30.09 in 10.0 mi Calm Calm - N/A   Clear
2:53 AM 57.0 °F 48.0 °F 72% 30.09 in 10.0 mi WNW 3.5 mph - N/A   Clear
3:53 AM 53.1 °F 46.9 °F 80% 30.10 in 10.0 mi Calm Calm - N/A   Clear
4:53 AM 53.1 °F 46.9 °F 80% 30.11 in 10.0 mi North 3.5 mph - N/A   Clear
5:53 AM 53.1 °F 46.9 °F 80% 30.12 in 10.0 mi Calm Calm - N/A   Clear
6:53 AM 54.0 °F 48.0 °F 80% 30.13 in 10.0 mi Calm Calm - N/A   Clear
7:53 AM 57.0 °F 48.0 °F 72% 30.14 in 10.0 mi Calm Calm - N/A   Clear
8:53 AM 61.0 °F 48.9 °F 64% 30.13 in 10.0 mi Variable 3.5 mph - N/A   Clear
9:53 AM 64.0 °F 48.9 °F 58% 30.12 in 10.0 mi North 3.5 mph - N/A   Partly Cloudy
10:53 AM 68.0 °F 48.9 °F 50% 30.08 in 10.0 mi NW 5.8 mph - N/A   Clear
11:53 AM 71.1 °F 48.0 °F 44% 30.05 in 10.0 mi Variable 5.8 mph - N/A   Clear
12:53 PM 75.0 °F 46.0 °F 36% 30.03 in 10.0 mi NNE 5.8 mph - N/A   Clear
1:53 PM 79.0 °F 46.0 °F 31% 30.01 in 10.0 mi East 4.6 mph - N/A   Clear
2:53 PM 81.0 °F 46.9 °F 30% 29.99 in 10.0 mi Variable 3.5 mph - N/A   Clear
3:53 PM 82.9 °F 48.9 °F 31% 29.96 in 10.0 mi NW 5.8 mph - N/A   Clear
4:53 PM 84.9 °F 50.0 °F 30% 29.93 in 10.0 mi WNW 11.5 mph - N/A   Clear
5:53 PM 84.0 °F 50.0 °F 31% 29.93 in 10.0 mi WNW 10.4 mph 19.6 mph N/A   Clear
6:53 PM 82.0 °F 50.0 °F 33% 29.94 in 10.0 mi NW 13.8 mph - N/A   Clear
7:53 PM 79.0 °F 50.0 °F 36% 29.95 in 10.0 mi NW 9.2 mph - N/A   Clear
8:53 PM 73.9 °F 48.9 °F 41% 29.96 in 6.0 mi NW 8.1 mph - N/A   Haze
9:53 PM 71.1 °F 48.9 °F 45% 29.98 in 6.0 mi NW 5.8 mph - N/A   Haze
10:53 PM 68.0 °F 48.9 °F 50% 29.99 in 10.0 mi North 4.6 mph - N/A   Clear
11:53 PM 66.9 °F 48.9 °F 52% 29.99 in 10.0 mi NNW 3.5 mph - N/A   Clear